| time (UTC) | temp F | wind direction | speed MPH | gust MPH | rain 1hr in | rain 24hr in | rain mn in | humidity % | barometer mb |
| 20260504050340 | 46 | 40 | 0.0 | 0.0 | 0.00 | 0.00 | 0.00 | 72 | 1017.8 |
| 20260504045837 | 45 | 40 | 0.0 | 1.0 | 0.00 | 0.00 | 0.00 | 72 | 1017.5 |
| 20260504045332 | 45 | 41 | 0.0 | 1.0 | 0.00 | 0.00 | 0.00 | 75 | 1017.5 |
| 20260504044830 | 44 | 41 | 0.0 | 0.0 | 0.00 | 0.00 | 0.00 | 76 | 1017.7 |
| 20260504044327 | 44 | 41 | 0.0 | 0.0 | 0.00 | 0.00 | 0.00 | 76 | 1017.8 |
| 20260504043824 | 44 | 41 | 0.0 | 0.0 | 0.00 | 0.00 | 0.00 | 77 | 1017.7 |
| 20260504043321 | 44 | 41 | 0.0 | 0.0 | 0.00 | 0.00 | 0.00 | 77 | 1017.5 |
| 20260504042819 | 44 | 41 | 0.0 | 0.0 | 0.00 | 0.00 | 0.00 | 77 | 1017.7 |
| 20260504042315 | 44 | 41 | 0.0 | 0.0 | 0.00 | 0.00 | 0.00 | 77 | 1017.8 |
| 20260504041811 | 44 | 41 | 0.0 | 0.0 | 0.00 | 0.00 | 0.00 | 77 | 1017.5 |
| 20260504041307 | 43 | 41 | 0.0 | 0.0 | 0.00 | 0.00 | 0.00 | 77 | 1017.7 |
| 20260504040804 | 43 | 41 | 0.0 | 0.0 | 0.00 | 0.00 | 0.00 | 77 | 1017.5 |
| 20260504040301 | 43 | 41 | 0.0 | 0.0 | 0.00 | 0.00 | 0.00 | 77 | 1017.7 |
| 20260504035757 | 43 | 41 | 0.0 | 0.0 | 0.00 | 0.00 | 0.00 | 77 | 1017.4 |
| 20260504035254 | 44 | 41 | 0.0 | 0.0 | 0.00 | 0.00 | 0.00 | 76 | 1017.5 |
| 20260504034751 | 44 | 41 | 0.0 | 0.0 | 0.00 | 0.00 | 0.00 | 77 | 1017.4 |
| 20260504034249 | 44 | 41 | 0.0 | 0.0 | 0.00 | 0.00 | 0.00 | 76 | 1017.5 |
| 20260504033746 | 44 | 41 | 0.0 | 0.0 | 0.00 | 0.00 | 0.00 | 77 | 1017.5 |
| 20260504033244 | 43 | 41 | 0.0 | 0.0 | 0.00 | 0.00 | 0.00 | 77 | 1017.4 |
| 20260504032740 | 43 | 41 | 0.0 | 0.0 | 0.00 | 0.00 | 0.00 | 76 | 1017.7 |
| 20260504032237 | 43 | 41 | 0.0 | 0.0 | 0.00 | 0.00 | 0.00 | 75 | 1017.5 |
| 20260504031734 | 43 | 41 | 0.0 | 0.0 | 0.00 | 0.00 | 0.00 | 75 | 1017.8 |
| 20260504031232 | 43 | 41 | 0.0 | 0.0 | 0.00 | 0.00 | 0.00 | 73 | 1017.7 |
| 20260504030727 | 43 | 41 | 0.0 | 0.0 | 0.00 | 0.00 | 0.00 | 73 | 1017.4 |
| 20260504030225 | 43 | 41 | 0.0 | 0.0 | 0.00 | 0.00 | 0.00 | 74 | 1017.5 |
| 20260504025721 | 43 | 41 | 0.0 | 0.0 | 0.00 | 0.00 | 0.00 | 72 | 1017.5 |
| 20260504025218 | 42 | 41 | 0.0 | 0.0 | 0.00 | 0.00 | 0.00 | 72 | 1017.8 |
| 20260504024715 | 42 | 41 | 0.0 | 0.0 | 0.00 | 0.00 | 0.00 | 71 | 1017.5 |
| 20260504024211 | 42 | 41 | 0.0 | 0.0 | 0.00 | 0.00 | 0.00 | 70 | 1017.7 |
| 20260504023708 | 43 | 41 | 0.0 | 0.0 | 0.00 | 0.00 | 0.00 | 69 | 1017.7 |
| 20260504023204 | 43 | 41 | 0.0 | 0.0 | 0.00 | 0.00 | 0.00 | 68 | 1017.5 |
| 20260504022701 | 43 | 41 | 0.0 | 0.0 | 0.00 | 0.00 | 0.00 | 68 | 1017.7 |
| 20260504022156 | 43 | 41 | 0.0 | 0.0 | 0.00 | 0.00 | 0.00 | 66 | 1017.5 |
| 20260504021655 | 44 | 41 | 0.0 | 0.0 | 0.00 | 0.00 | 0.00 | 67 | 1017.7 |
| 20260504021150 | 44 | 41 | 0.0 | 0.0 | 0.00 | 0.00 | 0.00 | 65 | 1017.4 |
| 20260504020648 | 44 | 41 | 0.0 | 0.0 | 0.00 | 0.00 | 0.00 | 64 | 1017.3 |
| 20260504020143 | 44 | 41 | 0.0 | 0.0 | 0.00 | 0.00 | 0.00 | 64 | 1017.4 |
| 20260504015641 | 45 | 41 | 0.0 | 0.0 | 0.00 | 0.00 | 0.00 | 62 | 1017.4 |
| 20260504015137 | 45 | 41 | 0.0 | 0.0 | 0.00 | 0.00 | 0.00 | 60 | 1017.2 |
| 20260504014632 | 46 | 41 | 0.0 | 0.0 | 0.00 | 0.00 | 0.00 | 60 | 1017.3 |
| 20260504014130 | 46 | 41 | 0.0 | 0.0 | 0.00 | 0.00 | 0.00 | 59 | 1017.1 |
| 20260504013628 | 47 | 41 | 0.0 | 0.0 | 0.00 | 0.00 | 0.00 | 60 | 1017.1 |
| 20260504013124 | 47 | 41 | 0.0 | 0.0 | 0.00 | 0.00 | 0.00 | 59 | 1017.1 |
| 20260504012621 | 47 | 41 | 0.0 | 0.0 | 0.00 | 0.00 | 0.00 | 60 | 1017.0 |
| 20260504012120 | 47 | 41 | 0.0 | 0.0 | 0.00 | 0.00 | 0.00 | 59 | 1017.1 |
| 20260504011616 | 47 | 41 | 0.0 | 0.0 | 0.00 | 0.00 | 0.00 | 54 | 1016.9 |
| 20260504011112 | 48 | 41 | 0.0 | 0.0 | 0.00 | 0.00 | 0.00 | 55 | 1017.2 |
| 20260504010608 | 49 | 41 | 0.0 | 0.0 | 0.00 | 0.00 | 0.00 | 55 | 1017.0 |
| 20260504010104 | 49 | 41 | 0.0 | 0.0 | 0.00 | 0.00 | 0.00 | 50 | 1017.0 |
| 20260504005601 | 50 | 41 | 0.0 | 0.0 | 0.00 | 0.00 | 0.00 | 53 | 1016.8 |
| 20260504005058 | 50 | 41 | 0.0 | 1.0 | 0.00 | 0.00 | 0.00 | 53 | 1016.7 |
| 20260504004556 | 50 | 41 | 0.0 | 0.0 | 0.00 | 0.00 | 0.00 | 50 | 1016.9 |
| 20260504004053 | 50 | 41 | 0.0 | 0.0 | 0.00 | 0.00 | 0.00 | 52 | 1016.8 |
| 20260504003549 | 51 | 41 | 1.0 | 1.0 | 0.00 | 0.00 | 0.00 | 50 | 1016.7 |
| 20260504003046 | 51 | 41 | 0.0 | 0.0 | 0.00 | 0.00 | 0.00 | 51 | 1016.6 |
| 20260504002542 | 51 | 41 | 0.0 | 0.0 | 0.00 | 0.00 | 0.00 | 50 | 1016.6 |
| 20260504002040 | 52 | 41 | 0.0 | 0.0 | 0.00 | 0.00 | 0.00 | 50 | 1016.4 |
| 20260504001538 | 52 | 41 | 0.0 | 0.0 | 0.00 | 0.00 | 0.00 | 50 | 1016.5 |
| 20260504001034 | 53 | 41 | 0.0 | 0.0 | 0.00 | 0.00 | 0.00 | 48 | 1016.5 |
| 20260504000531 | 54 | 41 | 0.0 | 1.0 | 0.00 | 0.00 | 0.00 | 46 | 1016.7 |
| 20260504000028 | 55 | 41 | 1.0 | 1.0 | 0.00 | 0.00 | 0.00 | 44 | 1016.6 |
| 20260503235527 | 55 | 41 | 1.0 | 1.0 | 0.00 | 0.00 | 0.00 | 43 | 1016.3 |
| 20260503235023 | 56 | 41 | 0.0 | 1.0 | 0.00 | 0.00 | 0.00 | 44 | 1016.4 |
| 20260503234521 | 56 | 41 | 1.0 | 1.0 | 0.00 | 0.00 | 0.00 | 42 | 1016.5 |
| 20260503234019 | 57 | 40 | 0.0 | 0.0 | 0.00 | 0.00 | 0.00 | 41 | 1016.5 |
| 20260503233515 | 58 | 40 | 0.0 | 0.0 | 0.00 | 0.00 | 0.00 | 39 | 1016.5 |
| 20260503233011 | 58 | 40 | 0.0 | 0.0 | 0.00 | 0.00 | 0.00 | 39 | 1016.4 |
| 20260503232508 | 59 | 40 | 0.0 | 0.0 | 0.00 | 0.00 | 0.00 | 36 | 1016.2 |
| 20260503232006 | 61 | 40 | 0.0 | 1.0 | 0.00 | 0.00 | 0.00 | 36 | 1016.1 |
| 20260503231504 | 61 | 39 | 0.0 | 1.0 | 0.00 | 0.00 | 0.00 | 30 | 1016.3 |
| 20260503231000 | 63 | 40 | 0.0 | 1.0 | 0.00 | 0.00 | 0.00 | 33 | 1016.3 |
| 20260503230456 | 63 | 40 | 0.0 | 2.0 | 0.00 | 0.00 | 0.00 | 30 | 1016.3 |
| 20260503225954 | 62 | 55 | 0.0 | 1.0 | 0.00 | 0.00 | 0.00 | 28 | 1016.3 |
| 20260503225451 | 63 | 55 | 0.0 | 0.0 | 0.00 | 0.00 | 0.00 | 28 | 1016.3 |
| 20260503224946 | 63 | 54 | 1.0 | 2.0 | 0.00 | 0.00 | 0.00 | 27 | 1016.2 |
| 20260503224443 | 63 | 66 | 0.0 | 2.0 | 0.00 | 0.00 | 0.00 | 27 | 1016.0 |
| 20260503223941 | 64 | 41 | 1.0 | 1.0 | 0.00 | 0.00 | 0.00 | 29 | 1016.2 |
| 20260503223439 | 63 | 20 | 2.0 | 2.0 | 0.00 | 0.00 | 0.00 | 26 | 1016.1 |
| 20260503222934 | 64 | 93 | 2.0 | 2.0 | 0.00 | 0.00 | 0.00 | 28 | 1016.2 |
| 20260503222433 | 65 | 148 | 0.0 | 1.0 | 0.00 | 0.00 | 0.00 | 25 | 1016.3 |
| 20260503221931 | 65 | 247 | 3.0 | 4.0 | 0.00 | 0.00 | 0.00 | 27 | 1016.2 |
| 20260503221429 | 64 | 30 | 0.0 | 3.0 | 0.00 | 0.00 | 0.00 | 29 | 1016.3 |
| 20260503220925 | 65 | 138 | 1.0 | 2.0 | 0.00 | 0.00 | 0.00 | 27 | 1016.4 |
| 20260503220421 | 65 | 256 | 0.0 | 1.0 | 0.00 | 0.00 | 0.00 | 31 | 1016.5 |
| 20260503215919 | 65 | 300 | 1.0 | 2.0 | 0.00 | 0.00 | 0.00 | 28 | 1016.3 |
| 20260503215416 | 66 | 74 | 1.0 | 3.0 | 0.00 | 0.00 | 0.00 | 27 | 1016.5 |
| 20260503214913 | 65 | 42 | 1.0 | 1.0 | 0.00 | 0.00 | 0.00 | 26 | 1016.3 |
| 20260503214410 | 65 | 48 | 2.0 | 2.0 | 0.00 | 0.00 | 0.00 | 25 | 1016.4 |
| 20260503213908 | 65 | 56 | 1.0 | 6.0 | 0.00 | 0.00 | 0.00 | 28 | 1016.4 |
| 20260503213406 | 65 | 283 | 1.0 | 4.0 | 0.00 | 0.00 | 0.00 | 27 | 1016.3 |
| 20260503212902 | 65 | 243 | 3.0 | 3.0 | 0.00 | 0.00 | 0.00 | 27 | 1016.5 |
| 20260503212400 | 65 | 240 | 7.0 | 8.0 | 0.00 | 0.00 | 0.00 | 28 | 1016.4 |
| 20260503211857 | 65 | 227 | 0.0 | 3.0 | 0.00 | 0.00 | 0.00 | 27 | 1016.5 |
| 20260503211354 | 65 | 248 | 1.0 | 4.0 | 0.00 | 0.00 | 0.00 | 30 | 1016.4 |
| 20260503210848 | 64 | 60 | 1.0 | 2.0 | 0.00 | 0.00 | 0.00 | 27 | 1016.6 |
| 20260503210346 | 65 | 274 | 2.0 | 4.0 | 0.00 | 0.00 | 0.00 | 26 | 1016.6 |
| 20260503205841 | 64 | 318 | 3.0 | 4.0 | 0.00 | 0.00 | 0.00 | 32 | 1016.6 |
| 20260503205338 | 64 | 332 | 1.0 | 7.0 | 0.00 | 0.00 | 0.00 | 30 | 1017.1 |
| 20260503204834 | 65 | 253 | 2.0 | 4.0 | 0.00 | 0.00 | 0.00 | 28 | 1016.4 |
| 20260503204332 | 65 | 334 | 1.0 | 3.0 | 0.00 | 0.00 | 0.00 | 31 | 1016.6 |
| 20260503203829 | 66 | 267 | 2.0 | 3.0 | 0.00 | 0.00 | 0.00 | 30 | 1016.4 |
| 20260503203326 | 64 | 35 | 0.0 | 1.0 | 0.00 | 0.00 | 0.00 | 32 | 1016.7 |
| 20260503202823 | 63 | 73 | 2.0 | 3.0 | 0.00 | 0.00 | 0.00 | 36 | 1016.8 |
| 20260503202321 | 64 | 240 | 6.0 | 13.0 | 0.00 | 0.00 | 0.00 | 31 | 1016.8 |
| 20260503201819 | 65 | 228 | 3.0 | 3.0 | 0.00 | 0.00 | 0.00 | 28 | 1016.8 |
| 20260503201316 | 65 | 262 | 3.0 | 3.0 | 0.00 | 0.00 | 0.00 | 27 | 1016.8 |
| 20260503200814 | 64 | 40 | 2.0 | 6.0 | 0.00 | 0.00 | 0.00 | 30 | 1016.9 |
| 20260503200309 | 65 | 89 | 1.0 | 7.0 | 0.00 | 0.00 | 0.00 | 28 | 1016.9 |
| 20260503195807 | 63 | 245 | 0.0 | 3.0 | 0.00 | 0.00 | 0.00 | 33 | 1017.3 |
| 20260503195304 | 63 | 243 | 6.0 | 11.0 | 0.00 | 0.00 | 0.00 | 31 | 1017.2 |
| 20260503194800 | 62 | 293 | 3.0 | 4.0 | 0.00 | 0.00 | 0.00 | 30 | 1017.3 |
| 20260503194256 | 63 | 71 | 4.0 | 6.0 | 0.00 | 0.00 | 0.00 | 30 | 1017.2 |
| 20260503193753 | 64 | 254 | 4.0 | 7.0 | 0.00 | 0.00 | 0.00 | 31 | 1017.4 |
| 20260503193249 | 62 | 205 | 4.0 | 6.0 | 0.00 | 0.00 | 0.00 | 31 | 1017.5 |
| 20260503192745 | 62 | 256 | 2.0 | 4.0 | 0.00 | 0.00 | 0.00 | 34 | 1017.8 |
| 20260503192239 | 62 | 288 | 6.0 | 8.0 | 0.00 | 0.00 | 0.00 | 34 | 1017.9 |
| 20260503191737 | 62 | 238 | 5.0 | 6.0 | 0.00 | 0.00 | 0.00 | 32 | 1017.9 |
| 20260503191229 | 63 | 253 | 6.0 | 9.0 | 0.00 | 0.00 | 0.00 | 29 | 1018.0 |
| 20260503190725 | 63 | 325 | 4.0 | 6.0 | 0.00 | 0.00 | 0.00 | 31 | 1018.1 |
| 20260503190222 | 63 | 63 | 2.0 | 6.0 | 0.00 | 0.00 | 0.00 | 33 | 1018.2 |
| 20260503185720 | 62 | 356 | 2.0 | 3.0 | 0.00 | 0.00 | 0.00 | 31 | 1018.4 |
| 20260503185214 | 60 | 53 | 2.0 | 3.0 | 0.00 | 0.00 | 0.00 | 34 | 1018.4 |
| 20260503184710 | 62 | 236 | 3.0 | 4.0 | 0.00 | 0.00 | 0.00 | 36 | 1018.4 |
| 20260503184206 | 62 | 245 | 4.0 | 7.0 | 0.00 | 0.00 | 0.00 | 32 | 1018.4 |
| 20260503183703 | 60 | 238 | 0.0 | 6.0 | 0.00 | 0.00 | 0.00 | 32 | 1018.5 |
| 20260503183200 | 60 | 243 | 4.0 | 13.0 | 0.00 | 0.00 | 0.00 | 37 | 1018.4 |
| 20260503182658 | 61 | 261 | 7.0 | 9.0 | 0.00 | 0.00 | 0.00 | 35 | 1018.5 |
| 20260503182156 | 60 | 286 | 3.0 | 4.0 | 0.00 | 0.00 | 0.00 | 31 | 1018.4 |
| 20260503181653 | 60 | 269 | 5.0 | 6.0 | 0.00 | 0.00 | 0.00 | 33 | 1018.6 |
| 20260503181149 | 60 | 106 | 6.0 | 8.0 | 0.00 | 0.00 | 0.00 | 31 | 1018.7 |
| 20260503180646 | 59 | 204 | 4.0 | 8.0 | 0.00 | 0.00 | 0.00 | 30 | 1018.8 |
| 20260503180145 | 60 | 275 | 5.0 | 7.0 | 0.00 | 0.00 | 0.00 | 30 | 1018.7 |
| 20260503175641 | 59 | 112 | 2.0 | 11.0 | 0.00 | 0.00 | 0.00 | 33 | 1018.8 |
| 20260503175138 | 59 | 225 | 1.0 | 7.0 | 0.00 | 0.00 | 0.00 | 34 | 1018.7 |
| 20260503174634 | 59 | 263 | 2.0 | 9.0 | 0.00 | 0.00 | 0.00 | 35 | 1018.7 |
| 20260503174132 | 60 | 339 | 2.0 | 4.0 | 0.00 | 0.00 | 0.00 | 34 | 1018.8 |
| 20260503173626 | 60 | 356 | 3.0 | 9.0 | 0.00 | 0.00 | 0.00 | 32 | 1018.6 |
| 20260503173123 | 60 | 264 | 5.0 | 8.0 | 0.00 | 0.00 | 0.00 | 35 | 1018.7 |
| 20260503172620 | 59 | 305 | 2.0 | 7.0 | 0.00 | 0.00 | 0.00 | 36 | 1018.8 |
| 20260503172117 | 59 | 58 | 1.0 | 4.0 | 0.00 | 0.00 | 0.00 | 36 | 1019.0 |
| 20260503171614 | 59 | 334 | 1.0 | 6.0 | 0.00 | 0.00 | 0.00 | 36 | 1019.1 |
| 20260503171111 | 58 | 64 | 4.0 | 8.0 | 0.00 | 0.00 | 0.00 | 38 | 1018.9 |
| 20260503170608 | 58 | 284 | 3.0 | 4.0 | 0.00 | 0.00 | 0.00 | 39 | 1019.0 |
| 20260503170104 | 58 | 210 | 4.0 | 7.0 | 0.00 | 0.00 | 0.00 | 36 | 1019.1 |
| 20260503151000 | 51 | 269 | 2.0 | 3.0 | 0.00 | 0.00 | 0.00 | 43 | 1020.2 |
| 20260503150456 | 51 | 253 | 3.0 | 7.0 | 0.00 | 0.00 | 0.00 | 45 | 1020.5 |
| 20260503131338 | 48 | 281 | 9.0 | 10.0 | 0.00 | 0.00 | 0.00 | 46 | 1020.2 |
| 20260503130836 | 48 | 257 | 6.0 | 8.0 | 0.00 | 0.00 | 0.00 | 47 | 1020.2 |
| 20260503130333 | 47 | 276 | 4.0 | 6.0 | 0.00 | 0.00 | 0.00 | 48 | 1020.1 |
| 20260503110732 | 40 | 247 | 1.0 | 2.0 | 0.00 | 0.00 | 0.00 | 68 | 1019.5 |
| 20260503110229 | 40 | 333 | 0.0 | 0.0 | 0.00 | 0.00 | 0.00 | 66 | 1019.4 |
| 20260503100155 | 38 | 86 | 0.0 | 1.0 | 0.00 | 0.00 | 0.00 | 76 | 1018.4 |
| 20260503090109 | 42 | 10 | 0.0 | 1.0 | 0.00 | 0.00 | 0.00 | 61 | 1017.9 |
| 20260503081539 | 41 | 317 | 0.0 | 2.0 | 0.00 | 0.00 | 0.00 | 66 | 1017.7 |
| 20260503081037 | 40 | 91 | 1.0 | 3.0 | 0.00 | 0.00 | 0.00 | 71 | 1017.4 |
| 20260503080532 | 38 | 62 | 0.0 | 1.0 | 0.00 | 0.00 | 0.00 | 76 | 1017.3 |
| 20260503072506 | 37 | 50 | 0.0 | 2.0 | 0.00 | 0.00 | 0.00 | 82 | 1017.1 |
| 20260503072004 | 38 | 56 | 0.0 | 0.0 | 0.00 | 0.00 | 0.00 | 82 | 1016.9 |
| 20260503071500 | 38 | 56 | 0.0 | 0.0 | 0.00 | 0.00 | 0.00 | 81 | 1017.2 |
| 20260503070956 | 38 | 56 | 0.0 | 0.0 | 0.00 | 0.00 | 0.00 | 79 | 1017.1 |
| 20260503070453 | 38 | 56 | 0.0 | 1.0 | 0.00 | 0.00 | 0.00 | 78 | 1016.8 |